sat.trackr.live / text

‹ back to catalog

QIANFAN-225

NORAD 69854 · 2026-155G

PAYLOAD ACTIVE UNKNOWN

§ Identity

Operator
Country
PRC
Launch date
2026-07-05
Launch site
WSC
Launch vehicle
Mass (kg)
RCS (m²)

External: N2YO · Heavens-Above · Gunter

§ Orbital elements

Epoch: 2026-09-19T20:07:51.383424Z

Period
106.72 min
Inclination
89.0079°
Eccentricity
0.0033777
Mean motion
13.49325804 rev/d
Perigee alt
1,049.6 km
Apogee alt
1,099.9 km
Semi-major
7,452.9 km
B*
-2.8789e+0
RAAN
53.8111°
Arg perigee
21.5342°
Mean anomaly
338.7220°
Rev number
1,062

§ Raw data

QIANFAN-2251 69854U 26155G   26262.83878916 -.01704552  00000+0 -28789+1 0  99982 69854  89.0079  53.8111 0033777  21.5342 338.7220 13.49325804 10623

JSON: /api/v1/satellites/69854 · /tle

For live sub-satellite position, see the globe view (requires WebGL).

§ Visibility from observer

Set your observer location to see the next 7 days of passes ≥ 10°. The values pass through the URL so the page stays shareable.

No JS? Fill the form by hand. The geolocation button needs JavaScript.